Miami International Airport Miami US
ICAO: KMIA
IATA: MIA
Category: Large
Scheduled Services: Yes

Elevation: 8 ft
TransAlt. 18000 ft.

Airport Communications:
APP:120.5
ATIS:119.15
CLNC DEL:120.35
DEP:119.45
GND:121.8
TWR:118.3
UNICOM:123

KMIA Zoom In..

Runways:

(A) RW 08L length 8600 ft width 150 ft
LOC 109.30 / hdg 92

(B) RW 08R length 10506 ft width 200 ft
ILS 110.30 / hdg 92

(C) RW 09 length 13016 ft width 150 ft
ILS 110.90 / hdg 92

(D) RW 12 length 9355 ft width 150 ft
ILS 108.90 / hdg 124

(E) RW 26L length 10506 ft width 200 ft
ILS 109.10 / hdg 272

(F) RW 26R length 8600 ft width 150 ft
LOC 109.30 / hdg 272

(G) RW 27 length 13016 ft width 150 ft
ILS 109.50 / hdg 272

(H) RW 30 length 9355 ft width 150 ft
ILS 111.70 / hdg 304

Location; KMIA
Day. 20 / Time. 19.53 Zulu
* Altimeter: 30.00
* Temperature: 31° c. 87.8°f.
* Wind from: 140° Speed 11 kn with Gusts up to 17 kn.
Dewpoint: 25° c.
Visibility: 10 Statute Miles.
Clouds: Scattered 4700 ft.
Clouds: Overcast 6000 ft.

KMIA 201953Z 14011G17KT 10SM SCT047 OVC060 31/25 A3000 RMK AO2 LTG DSNT W SLP158 T03060250


Wind From 140°
Speed 11 kn.

 
 
jpsmedia.com for Web Design worldairports.se 2018   terms of use